Location: *
(41.3833°S, 177.8333°W)
Time: 19:48:28
(UTC+00:00)

SL-16 R/B - Pass Details

Date: 01 April 2020
Orbit: 842 x 846 km, 71.0° (Epoch: 31 May)

Event Time Altitude Azimuth Distance (km) Brightness Sun altitude
Exits shadow 15:31:31 71° 159° (SSE) 905 2.3 -29.6°
Drops below altitude 10° 15:36:37 10° 156° (SSE) 2,500 5.2 -28.7°
Sets 15:39:05 0° 156° (SSE) 3,441 6.0 -28.3°
